EW5139 Weather Reports


time (UTC)temp
F
wind
direction
speed
knots
gust
knots
rain 1hr
in
rain 24hr
in
rain mn
in
humidity
%
barometer
mb
20260505041406 66 139 0.9 2.6 0.00 0.00 0.00 66 1006.3
20260505040906 66 131 0.0 2.6 0.00 0.00 0.00 67 1006.4
20260505040406 66 127 0.0 0.9 0.00 0.00 0.00 67 1006.4
20260505035906 66 135 0.0 2.6 0.00 0.00 0.00 67 1006.5
20260505035406 66 122 0.0 2.6 0.00 0.00 0.00 67 1006.5
20260505034906 66 121 0.9 2.6 0.00 0.00 0.00 67 1006.5
20260505034406 66 119 0.0 0.9 0.00 0.00 0.00 68 1006.5
20260505033906 66 129 0.0 1.7 0.00 0.00 0.00 68 1006.5
20260505033405 66 133 0.0 0.9 0.00 0.00 0.00 67 1006.5
20260505032906 67 113 0.0 1.7 0.00 0.00 0.00 67 1006.5
20260505032406 67 127 0.0 2.6 0.00 0.00 0.00 67 1006.4
20260505031905 67 161 0.0 0.0 0.00 0.00 0.00 67 1006.5
20260505031406 67 171 0.0 1.7 0.00 0.00 0.00 67 1006.5
20260505030906 67 64 0.0 2.6 0.00 0.00 0.00 67 1006.4
20260505030406 67 167 0.0 1.7 0.00 0.00 0.00 66 1006.4
20260505025905 67 110 0.0 0.9 0.00 0.00 0.00 66 1006.4
20260505025405 67 142 0.0 2.6 0.00 0.00 0.00 66 1006.3
20260505024906 67 80 0.0 1.7 0.00 0.00 0.00 67 1006.2
20260505024405 67 113 0.0 0.9 0.00 0.00 0.00 67 1006.1
20260505023906 67 140 0.0 0.9 0.00 0.00 0.00 67 1006.0
20260505023406 67 142 0.0 0.9 0.00 0.00 0.00 67 1006.0
20260505022905 67 102 0.0 0.9 0.00 0.00 0.00 66 1005.9
20260505022405 67 128 0.9 0.9 0.00 0.00 0.00 67 1005.8
20260505021906 67 146 0.0 1.7 0.00 0.00 0.00 67 1005.7
20260505021405 67 95 0.0 1.7 0.00 0.00 0.00 66 1005.7
20260505020906 67 112 0.9 1.7 0.00 0.00 0.00 66 1005.6
20260505020405 67 94 0.0 1.7 0.00 0.00 0.00 66 1005.5
20260505015906 67 116 0.0 0.9 0.00 0.00 0.00 66 1005.4
20260505015405 68 129 0.0 1.7 0.00 0.00 0.00 66 1005.3
20260505014905 68 92 0.0 0.9 0.00 0.00 0.00 65 1005.4
20260505014405 68 102 0.0 0.9 0.00 0.00 0.00 65 1005.4
20260505013905 68 141 0.0 0.9 0.00 0.00 0.00 64 1005.3
20260505013406 68 118 0.0 0.9 0.00 0.00 0.00 64 1005.3
20260505012905 68 114 0.0 0.9 0.00 0.00 0.00 64 1005.3
20260505012405 69 151 0.0 0.9 0.00 0.00 0.00 63 1005.3
20260505011906 69 129 0.0 0.9 0.00 0.00 0.00 63 1005.2
20260505011406 69 129 0.0 0.9 0.00 0.00 0.00 62 1005.1
20260505010905 69 139 0.0 0.9 0.00 0.00 0.00 62 1005.2
20260505010405 70 96 0.0 0.9 0.00 0.00 0.00 61 1005.1
20260505005905 70 168 0.0 2.6 0.00 0.00 0.00 61 1005.1
20260505005406 70 145 0.0 1.7 0.00 0.00 0.00 60 1005.2
20260505004905 70 134 0.0 2.6 0.00 0.00 0.00 60 1005.1
20260505004405 70 188 0.0 1.7 0.00 0.00 0.00 59 1005.1
20260505003405 71 122 0.0 2.6 0.00 0.00 0.00 58 1005.1
20260505002905 71 112 0.0 1.7 0.00 0.00 0.00 58 1005.0
20260505002406 71 156 0.9 2.6 0.00 0.00 0.00 57 1005.2
20260505001905 72 125 0.9 2.6 0.00 0.00 0.00 57 1005.2
20260505001405 72 138 0.9 2.6 0.00 0.00 0.00 56 1005.2
20260505000905 72 93 0.0 2.6 0.00 0.00 0.00 56 1005.2
20260505000406 73 132 0.9 1.7 0.00 0.00 0.00 56 1005.4
20260504235905 73 322 0.0 2.6 0.00 0.00 0.00 55 1005.4
20260504235405 73 247 0.9 2.6 0.00 0.00 0.00 55 1005.4
20260504234906 73 210 0.0 1.7 0.00 0.00 0.00 55 1005.6
20260504234405 73 278 0.9 2.6 0.00 0.00 0.00 54 1005.6
20260504233905 74 102 0.9 4.3 0.00 0.00 0.00 52 1005.6
20260504233406 74 76 0.9 2.6 0.00 0.00 0.00 52 1005.8
20260504232406 75 271 1.7 6.1 0.00 0.00 0.00 50 1005.8
20260504231905 75 180 1.7 5.2 0.00 0.00 0.00 50 1005.7
20260504231405 75 252 0.9 4.3 0.00 0.00 0.00 51 1005.6
20260504230905 76 151 0.9 2.6 0.00 0.00 0.00 52 1005.6
20260504230405 75 245 1.7 5.2 0.00 0.00 0.00 53 1005.7
20260504225905 75 195 1.7 7.0 0.00 0.00 0.00 54 1005.8
20260504225405 74 229 0.9 2.6 0.00 0.00 0.00 57 1006.0
20260504224405 73 68 0.0 2.6 0.00 0.00 0.00 59 1006.0
20260504223905 73 110 0.9 2.6 0.00 0.00 0.00 59 1006.0
20260504223405 73 138 0.0 1.7 0.00 0.00 0.00 59 1006.1
20260504222905 73 109 0.0 1.7 0.00 0.00 0.00 58 1006.1
20260504222406 74 153 0.9 2.6 0.00 0.00 0.00 58 1006.2
20260504221905 74 277 0.0 1.7 0.00 0.00 0.00 57 1006.2
20260504220905 74 337 0.0 0.9 0.00 0.00 0.00 55 1006.3
20260504215905 74 86 0.0 2.6 0.00 0.00 0.00 56 1006.3
20260504215405 74 132 0.9 2.6 0.00 0.00 0.00 55 1006.2
20260504214905 74 148 0.9 4.3 0.00 0.00 0.00 56 1006.3
20260504214405 74 254 0.9 2.6 0.00 0.00 0.00 54 1006.6
20260504213905 74 270 0.0 2.6 0.00 0.00 0.00 55 1006.6
20260504212905 74 30 0.0 2.6 0.00 0.00 0.00 56 1006.7
20260504212405 74 289 0.9 2.6 0.00 0.00 0.00 56 1006.9
20260504211405 75 142 0.0 2.6 0.00 0.00 0.00 56 1007.0
20260504210905 75 268 0.9 2.6 0.00 0.00 0.00 55 1007.1
20260504210404 74 324 1.7 6.1 0.00 0.00 0.00 57 1007.2
20260504205905 74 148 0.0 2.6 0.00 0.00 0.00 57 1007.3
20260504205405 74 259 1.7 5.2 0.00 0.00 0.00 57 1007.2
20260504204905 73 282 0.9 2.6 0.00 0.00 0.00 58 1007.2
20260504204404 73 258 0.9 5.2 0.00 0.00 0.00 57 1007.3
20260504203905 73 204 0.9 4.3 0.00 0.00 0.00 58 1007.4
20260504203404 73 270 0.0 2.6 0.00 0.00 0.00 58 1007.6
20260504202905 73 279 1.7 5.2 0.00 0.00 0.00 57 1007.7
20260504201905 73 238 0.9 5.2 0.00 0.00 0.00 57 1007.6
20260504201405 74 281 1.7 8.7 0.00 0.00 0.00 56 1007.6
20260504200905 74 233 0.9 8.7 0.00 0.00 0.00 58 1007.7
20260504200404 74 251 0.9 2.6 0.00 0.00 0.00 58 1007.6
20260504195905 73 191 1.7 6.1 0.00 0.00 0.00 60 1007.7
20260504195405 72 158 1.7 4.3 0.00 0.00 0.00 63 1007.7
20260504194905 71 154 0.9 2.6 0.00 0.00 0.00 64 1007.9
20260504194404 70 268 0.9 4.3 0.00 0.00 0.00 63 1008.0
20260504193905 70 270 0.9 2.6 0.00 0.00 0.00 66 1008.3
20260504193404 69 313 0.0 2.6 0.00 0.00 0.00 68 1008.5
20260504192904 68 342 0.9 8.7 0.00 0.00 0.00 67 1008.5
20260504192404 68 143 0.9 2.6 0.00 0.00 0.00 72 1008.6
20260504191904 67 122 1.7 4.3 0.00 0.00 0.00 71 1008.0
20260504191404 67 290 0.0 2.6 0.00 0.00 0.00 70 1008.9
20260504190905 67 322 0.0 0.9 0.00 0.00 0.00 71 1009.1
20260504190404 67 268 0.0 0.9 0.00 0.00 0.00 70 1008.9
20260504185904 67 44 0.0 4.3 0.00 0.00 0.00 69 1008.9
20260504185404 68 132 0.0 0.9 0.00 0.00 0.00 67 1009.2
20260504184905 68 34 0.9 2.6 0.00 0.00 0.00 65 1009.5
20260504184404 68 216 0.0 2.6 0.00 0.00 0.00 66 1009.2
20260504183404 69 182 1.7 5.2 0.00 0.00 0.00 63 1009.1
20260504182904 69 156 0.9 4.3 0.00 0.00 0.00 63 1009.0
20260504182405 70 150 0.9 7.8 0.00 0.00 0.00 63 1009.0
20260504181904 70 184 0.9 5.2 0.00 0.00 0.00 63 1008.7
20260504181405 70 144 0.9 5.2 0.00 0.00 0.00 63 1008.6
20260504175905 70 135 2.6 10.4 0.00 0.00 0.00 62 1008.4
20260504175404 70 246 0.9 10.4 0.00 0.00 0.00 63 1008.3
20260504174904 71 184 1.7 4.3 0.00 0.00 0.00 64 1008.2
20260504173904 70 185 0.9 2.6 0.00 0.00 0.00 64 1008.2
20260504173405 69 165 0.9 2.6 0.00 0.00 0.00 66 1008.1
20260504172905 69 242 1.7 5.2 0.00 0.00 0.00 65 1008.4
20260504172404 69 257 0.9 2.6 0.00 0.00 0.00 66 1008.5
20260504171904 69 157 0.9 2.6 0.00 0.00 0.00 67 1008.5
20260504171405 68 139 1.7 2.6 0.00 0.00 0.00 66 1008.2
20260504170904 68 287 0.0 2.6 0.00 0.00 0.00 67 1008.2
20260504170404 68 169 0.9 2.6 0.00 0.00 0.00 66 1008.4
20260504150904 64 214 0.0 1.7 0.00 0.00 0.00 69 1009.3
20260504150404 63 108 0.9 4.3 0.00 0.00 0.00 69 1009.2
20260504140904 61 91 0.0 2.6 0.00 0.00 0.00 70 1009.5
20260504130407 56 119 1.7 2.6 0.00 0.00 0.00 75 1009.9
20260504110407 50 139 0.0 0.0 0.00 0.00 0.00 77 1010.0
20260504100407 48 138 0.0 0.0 0.00 0.00 0.00 76 1010.3
20260504081907 50 102 0.0 0.0 0.00 0.00 0.00 72 1011.2
20260504081406 50 102 0.0 0.0 0.00 0.00 0.00 72 1011.2
20260504080906 50 62 0.0 0.0 0.00 0.00 0.00 71 1011.2
20260504080407 50 122 0.0 0.0 0.00 0.00 0.00 71 1011.3
20260504070406 51 133 0.0 0.9 0.00 0.00 0.00 70 1011.6
20260504050406 51 127 0.0 0.9 0.00 0.00 0.00 69 1012.8
20260504045906 51 127 0.0 0.9 0.00 0.00 0.00 69 1012.8
20260504045406 51 127 0.0 0.0 0.00 0.00 0.00 69 1012.8
20260504044906 51 127 0.0 0.9 0.00 0.00 0.00 69 1012.8
20260504044406 51 127 0.0 0.9 0.00 0.00 0.00 68 1013.0
20260504043906 51 127 0.0 0.0 0.00 0.00 0.00 68 1013.0
20260504043406 51 127 0.0 0.0 0.00 0.00 0.00 68 1013.1
20260504042906 51 127 0.0 0.0 0.00 0.00 0.00 68 1013.1
20260504042406 51 127 0.0 0.9 0.00 0.00 0.00 67 1013.1
20260504041906 52 125 0.0 0.9 0.00 0.00 0.00 67 1013.1